Location: Boiro
(42.6475°N, 8.8834°W)
Time: 19:27:25
(UTC+01:00)

A-11 Canister half - Pass Details

Date: 01 December 2021
Orbit: 1516 x 1684 km, 47.2° (Epoch: 26 January)

Event Time Altitude Azimuth Distance (km) Brightness Sun altitude
Rises 09:17:44 0° 232° (SW) 4,758 11.4 4.1°
Reaches altitude 10° 09:20:47 10° 230° (SW) 3,798 10.9 4.5°
Maximum altitude 09:30:26 73° 148° (SSE) 1,698 9.6 6.0°
Drops below altitude 10° 09:40:27 10° 66° (ENE) 3,929 11.6 7.4°
Sets 09:43:39 0° 65° (ENE) 4,930 12.0 7.9°
